Tracking 35274 objects as of 11-Sep-2026
HD Live streaming from Space Station
objects crossing your sky now

STARLINK-3870


STARLINK-3870 is no longer on orbit
STARLINK-3870 is classified as:


NORAD ID: 52451
Int'l Code: 2022-049A
Launch date: May 6, 2022
Source: United States (US)
Launch site: AIR FORCE EASTERN TEST RANGE (AFETR)
Decay date: 2026-05-26
Your satellite tracking list
Your tracking list is empty




NASA's NSSDC Master Catalog

Two Line Element Set (TLE):
1 52451U 22049A   26146.02623728  .09852349  12440-4  20819-3 0  9991
2 52451  53.2006  51.9162 0010518 244.9051 115.0909 16.45990611224206
Source of the keplerian elements: AFSPC